Погода в Ставрополе

Погода в Ставрополе : погода сейчас, прогноз погоды и архив. Всё, что Вы хотите узнать о погоде в Ставрополе!

Поиск расширенной информации на нашем сайте:

Другие новости

Новости СМИ2

Главная страница сайта

Новости сайта

03.07.2017

Напоминаем, что на нашем специализированном сайте Метеоцентр.Азия вы можете получить высокодетализированные автоматические прогнозы погоды по пунктам России, СНГ и мира в авиационном формате (включающие направление и скорость ветра, видимость, явления погоды, количество и форму облачности, нижнюю и верхнюю границу облачности).


Погода в Ставрополе - сегодня

Время (UTC), дата Ветер
(°,м/с) 
Видим.   Явления Облачность Т
(°С)
Тd
(°С)
f(%) Тe
(°С)
Pmin
(гПа)
dP
(гПа)
Po
(мм)
O2
(г/м3)
Тmin Tmax R s Состояние
почвы
09 16.08.18 110 (В) 11-15{18}  20000 м    1/1 600 м 
[Cu hum]
+27.9 +12.6 39 +34  1012.3  -0.6  722  261           
12 16.08.18 110 (В) 11-15{17}  20000 м    3/3 600 м 
[Cu hum]
+29.8 +11.1 31 +33  1010.8  -1.2  721  260           
15 16.08.18 110 (В) 8-13  20000 м    1/0 средняя 
[Ac trans]
+28.6 +9.3 30 +30  1010.5  -0.4  720  261    +30.1       
18 16.08.18 100 (В) 8-11{13}  20000 м    3/0 средняя 
[Ac trans]
+24.1 +8.1 36 +24  1012.2  0.9  721  266           
21 16.08.18 090 (В) 7-10{11}  20000 м    ясно 
+20.8 +7.8 43 +21  1012.8  721  269           
00 17.08.18 100 (В) 4{11}  20000 м    ясно 
+17 +11.1 68 +20  1013.3  -0.1  721  271           
03 17.08.18 100 (В) 20000 м    4/0 средняя 
[Ac trans]
+17.2 +13.5 79 +25  1013.4  0.2  721  271  +16.1        сухая 
06 17.08.18 100 (В) 20000 м    3/0 средняя 
[Ac trans]
+23.4 +15 59 +33  1012.6  0.2  721  265           
09 17.08.18 090 (В) 7-11{12}  20000 м    ясно 
+28.1 +10.5 33 +31  1011.3  0.2  721  261           
12 17.08.18 090 (В) 6-10{11}  20000 м    ясно 
+29.8 +10.2 30 +32  1010.1  -0.8  720  260           
15 17.08.18 090 (В) 5{12}  20000 м    1/0 средняя 
[Ac trans]
+28.5 +9.7 31 +30  1009.8  -0.5  720  261    +29.9       
18 17.08.18 050 (СВ) 20000 м    3/0 средняя 
[Ac trans]
+24.5 +8.9 37 +25  1010.8  0.3  720  265           
21 17.08.18 050 (СВ) 20000 м    3/0 средняя 
[Ac trans]
+23.1 +4.6 30 +23  1010.7  -0.4  720  267           
00 18.08.18 070 (В) 20000 м    ясно 
+19.5 +2.7 33 +21  1011.3  -0.1  720  270           
03 18.08.18 030 (СВ) 20000 м    3/0 средняя 
[Ac trans]
+19.6 +7.1 44 +21  1011.4  0.2  720  269  +16.9        сухая 
06 18.08.18 060 (СВ) 20000 м    3/0 верхняя 
[Ci fib]
+27.5 +7.9 29 +28  1010.5  0.5  720  262           
09 18.08.18 050 (СВ) 6-10{12}  20000 м    3/1 600 м верхняя 
[Cu hum|Ci fib]
+30.5 +0.1 14 +31  1009.7  -0.4  720  261           
12 18.08.18 080 (В) 5{12}  20000 м    5/3 600 м верхняя 
[Cu hum|Ci]
+30.7 -0.8 13 +31  1009.2  -0.4  720  261           
15 18.08.18 110 (В) 4{11}  20000 м    8/3 600 м верхняя 
[Sc diur, vesp|Ci]
+28 +1.3 18 +28  1009.8  0.1  720  263    +31.7       
18 18.08.18 тихо ()   20000 м    3/3 1000 м 
[Sc]
+23 +6.6 35 +23  1012.1  1.4  721  267           
21 18.08.18 070 (В) 7-10{10}  20000 м    ясно 
+21.4 +10.9 51 +25  1013  0.7  721  267           
00 19.08.18 060 (СВ) 4{11}  20000 м    ясно 
+18.5 +9.6 56 +20  1014.4  0.8  722  271           
03 19.08.18 070 (В) 20000 м    3/0 средняя 
[Ac trans]
+16.3 +3.5 42 +16  1016.1  1.1  723  274  +16        сухая 
06 19.08.18 070 (В) 8-10{11}  20000 м    1/0 средняя 
[Ac trans]
+21 +2.1 29 +21  1016  0.7  723  270           
09 19.08.18 060 (СВ) 7-13{13}  20000 м    ясно 
+24.1 +2.2 24 +24  1015  -0.4  723  267           
Время (UTC), дата Ветер
(°,м/с) 
Видим.   Явления Облачность Т
(°С)
Тd
(°С)
f(%) Тe
(°С)
Pmin
(гПа)
dP
(гПа)
Po
(мм)
O2
(г/м3)
Тmin Tmax R s Состояние
почвы

Для получения пояснительной информации подведите курсор к названию столбца.

ПОГОДА в Ставрополе - архив

Всё, что Вы хотите узнать о погоде в Ставрополе - удобно и подробно!

Выберите нужную дату (начиная с 1 января 2015* года) и нажмите кнопку "Найти".
Будут отображены архивные сводки погоды по пункту Ставрополь, начиная с указанной даты.


Отображать данные в формате CSV (для использования в таблицах Excel)


Внимание! Наш архив погоды предназначен исключительно для личного некоммерческого использования в познавательных целях. Если Вам необходимы официальные справки о состоянии погоды (для производственных, юридических, коммерческих и т.п. целей), обращайтесь в органы Росгидромета.

*Примечание: данная дата относится к архиву по метеостанциям СССР (Россия, СНГ, Балтия).
Архив по метеостанциям Зарубежной Европы и Азии (кроме Китая) хранится 10 дней, по другим регионам земного шара (Китай, Африка, Америка, Австралия, Океания) - 1 день.

Ставрополь - район местоположения метеостанции


Название, широта, долгота, высота метеостанции:
Ставрополь 45.1°ш. 42.1°д. 452 м над ур. моря [Российская Федерация]

Дополнительная информация

В oтличие oт бoльшинства пoгoдных сайтoв мы публикуем пoдрoбную метеoинфoрмацию в детальнoм прoфессиoнальнoм фoрмате.

Характеристики температуры и влажнoсти вoздуха измеряются на высoте 2 м в тени вдали oт зданий и деревьев.
Скoрoсть ветра измеряется на высoте 10 м (на урoвне рoста челoвека скoрoсть ветра ниже в 1.5-2 раза). Если метеoстанция нахoдится в гoрoде или в лесу, тo скoрoсть ветра занижена на 2-4 м/с пo сравнению с oткрытым местoм. Скoрoсть ветра над акватoриями крупных рек и oзёр, а также на вершинах хoлмoв на 2-5 м/с выше, чем в oбычных услoвиях.
Атмoсфернoе давление в разных тoчках местнoсти мoжет значительнo oтличаться oт давления на метеoстанции, в зависимoсти oт услoвий рельефа (при пoдъёме на 10 м давление пoнижается примернo на 1 мм рт.ст.).